TimeHST,TemperatureF,Dew PointF,Humidity,Sea Level PressureIn,VisibilityMPH,Wind Direction,Wind SpeedMPH,Gust SpeedMPH,PrecipitationIn,Events,Conditions,WindDirDegrees,DateUTC
12:53 AM,75.9,66.0,71,30.00,10.0,NNE,5.8,-,N/A,,Partly Cloudy,30,2013-11-05 10:53:00
1:53 AM,75.0,64.9,71,29.99,10.0,WNW,3.5,-,N/A,,Partly Cloudy,300,2013-11-05 11:53:00
2:53 AM,73.0,64.9,76,29.98,10.0,Calm,Calm,-,N/A,,Partly Cloudy,0,2013-11-05 12:53:00
3:53 AM,73.0,64.9,76,29.97,10.0,NW,3.5,-,N/A,,Partly Cloudy,320,2013-11-05 13:53:00
4:53 AM,73.0,64.9,76,29.97,10.0,NNW,5.8,-,N/A,,Scattered Clouds,330,2013-11-05 14:53:00
5:53 AM,72.0,64.9,78,29.96,10.0,NNW,5.8,-,N/A,,Partly Cloudy,330,2013-11-05 15:53:00
6:53 AM,73.0,64.9,76,29.98,10.0,NW,5.8,-,N/A,,Partly Cloudy,320,2013-11-05 16:53:00
7:53 AM,75.9,66.0,71,29.99,10.0,Variable,4.6,-,N/A,,Scattered Clouds,0,2013-11-05 17:53:00
8:53 AM,81.0,66.0,60,30.00,10.0,NNE,9.2,-,N/A,,Scattered Clouds,20,2013-11-05 18:53:00
9:53 AM,82.9,66.0,56,30.01,10.0,NE,11.5,-,N/A,,Scattered Clouds,40,2013-11-05 19:53:00
10:53 AM,84.9,66.9,55,30.01,10.0,ENE,9.2,-,N/A,,Mostly Cloudy,60,2013-11-05 20:53:00
11:53 AM,82.9,64.9,54,29.99,10.0,NE,8.1,18.4,N/A,,Mostly Cloudy,40,2013-11-05 21:53:00
12:53 PM,86.0,64.9,49,29.96,10.0,NE,12.7,-,N/A,,Scattered Clouds,50,2013-11-05 22:53:00
1:53 PM,86.0,66.0,51,29.94,10.0,ENE,15.0,20.7,N/A,,Scattered Clouds,70,2013-11-05 23:53:00
2:53 PM,84.9,66.0,53,29.93,10.0,NE,13.8,-,N/A,,Scattered Clouds,40,2013-11-06 00:53:00
3:53 PM,84.0,66.0,55,29.93,10.0,NE,13.8,-,N/A,,Scattered Clouds,40,2013-11-06 01:53:00
4:53 PM,82.9,66.0,56,29.95,10.0,ENE,15.0,-,N/A,,Scattered Clouds,70,2013-11-06 02:53:00
5:53 PM,80.1,66.9,64,29.96,10.0,ENE,5.8,-,N/A,,Scattered Clouds,70,2013-11-06 03:53:00
6:53 PM,78.1,66.0,66,29.97,10.0,NNE,6.9,-,N/A,,Scattered Clouds,30,2013-11-06 04:53:00
7:53 PM,78.1,66.0,66,29.99,10.0,NNE,8.1,-,N/A,,Scattered Clouds,30,2013-11-06 05:53:00
8:53 PM,78.1,66.0,66,30.00,10.0,North,4.6,-,N/A,,Mostly Cloudy,360,2013-11-06 06:53:00
9:53 PM,77.0,66.9,71,30.00,10.0,NNW,4.6,-,N/A,,Scattered Clouds,340,2013-11-06 07:53:00
10:53 PM,75.9,66.9,74,29.99,10.0,NNW,5.8,-,N/A,,Scattered Clouds,330,2013-11-06 08:53:00
11:53 PM,75.0,66.9,76,29.99,10.0,North,4.6,-,N/A,,Scattered Clouds,350,2013-11-06 09:53:00